FENGYUN 1C DEB, 38809

Orbit data source: Space-Track

FENGYUN 1C DEB, 38809 is space debris in SSO originally from a launch on Mon, 10 May 1999 UTC launched from the Taiyaun Space Center, China (TSC). Fengyun 1C debris stems from the Chinese weather satellite Fengyun-1C, which was intentionally destroyed by a Chinese anti-satellite missile in 2007. This event dramatically increased the amount of space debris, with thousands of trackable fragments posing hazards to satellites and human spaceflight. The Fengyun 1C debris cloud has become a focal point in discussions about space sustainability and the need for international regulations to prevent the creation of new debris.

Loading next visibility...
Identifier
38809, 1999-025EUZ
Orbit
SSO
Country
Flag of CNCN / PRC
Related business
Manufacturer
Unknown
Mission
Spacecraft
Bus & Motor
Unknown
Mass
Unknown
Launch date (UTC)
1999-05-10 (27 years ago)
Launch vehicle
Unknown
Launch site
Taiyaun Space Center, China (TSC)
Object type
Payload
Rocket body
Debris
Shape & HBR
Unknown shape, 0.1 m
Radar Cross Section
Small (<0.1 m²)

Expand to show TLE details & history
Last TLE update: 12 hours ago

TLE from 12 hours ago
0 FENGYUN 1C DEB
1 38809U 99025EUZ 26254.22744082  .00000659  00000-0  26718-3 0  9998
2 38809  98.5870 260.9905 0219956 261.1494  96.4722 14.18838757730694
Epoch: 2026-09-11T05:27Z
TLE epoch observation values (Epoch: 2026-09-11T05:27:30.886Z)
Latitude
-0.00002°
Longitude
-171.14201°
Altitude
853.503 km
Speed
7.415 km/s
True Right ascension
17h 23m 57s
True Declination
0° 00' 00"
Sunlit
Object was in daylight at epoch
Visualization orbit readout
Latitude
Unknown
Longitude
Unknown
Altitude
Unknown
Speed
Unknown
Apparent Right ascension
Unknown
Apparent Declination
Unknown
Sunlit
N/A
Visualization observer readout
Local Sidereal Time
10:05:07
Azimuth
Unknown
Elevation
Unknown
Doppler factor
Unknown
Orbital elements
Apogee altitude
984.904 km
Perigee altitude
667.966 km
Semi-major axis
7,204.572 km
Eccentricity
0.022
Inclination
98.587°
RAAN
260.9905°
Arg. of periapsis
261.1494°
True anomaly
98.96812°
Mean anomaly
96.4722°
Eccentric anomaly
97.72103°
Mean motion
3.5492 °/min
Orbital period
101.43 mins
BSTAR
0.00026718
Loading maneuver chart data...
Computing Atmospheric mass density...

Documentation

Showing up to 5 results
|